| time (UTC) | temp C | wind direction | speed KPH | gust KPH | rain 1hr cm | rain 24hr cm | rain mn cm | humidity % | barometer mb |
| 20260508174602 | 22 | 140 | 0.0 | 9.7 | 0.00 | 0.00 | 0.00 | 59 | 1009.6 |
| 20260508173046 | 21 | 251 | 0.0 | 4.8 | 0.00 | 0.00 | 0.00 | 69 | 1009.5 |
| 20260508171542 | 19 | 207 | 0.0 | 4.8 | 0.00 | 0.00 | 0.00 | 77 | 1009.5 |
| 20260508170038 | 16 | 207 | 0.0 | 4.8 | 0.00 | 0.00 | 0.00 | 90 | 1009.5 |
| 20260508164539 | 15 | 202 | 0.0 | 0.0 | 0.00 | 0.00 | 0.00 | 96 | 1009.6 |
| 20260508163046 | 14 | 246 | 0.0 | 0.0 | 0.00 | 0.00 | 0.00 | 96 | 1009.7 |
| 20260508161527 | 13 | 246 | 0.0 | 0.0 | 0.00 | 0.00 | 0.00 | 96 | 1009.7 |
| 20260508160025 | 12 | 246 | 0.0 | 0.0 | 0.00 | 0.00 | 0.00 | 96 | 1009.7 |
| 20260508154522 | 11 | 246 | 0.0 | 0.0 | 0.00 | 0.03 | 0.00 | 96 | 1009.8 |
| 20260508153027 | 11 | 246 | 0.0 | 0.0 | 0.00 | 0.03 | 0.00 | 95 | 1009.7 |
| 20260508151528 | 10 | 246 | 0.0 | 0.0 | 0.00 | 0.03 | 0.00 | 95 | 1009.7 |
| 20260508150026 | 9 | 246 | 0.0 | 0.0 | 0.00 | 0.03 | 0.00 | 95 | 1009.7 |
| 20260508144519 | 8 | 242 | 0.0 | 0.0 | 0.00 | 0.03 | 0.00 | 94 | 1009.6 |
| 20260508143017 | 8 | 242 | 0.0 | 0.0 | 0.00 | 0.03 | 0.00 | 94 | 1009.6 |
| 20260508141516 | 8 | 242 | 0.0 | 0.0 | 0.00 | 0.03 | 0.00 | 94 | 1009.4 |
| 20260508140014 | 8 | 242 | 0.0 | 0.0 | 0.00 | 0.03 | 0.00 | 94 | 1009.2 |
| 20260508134520 | 8 | 242 | 0.0 | 0.0 | 0.00 | 0.03 | 0.00 | 94 | 1009.1 |
| 20260508133012 | 8 | 242 | 0.0 | 0.0 | 0.00 | 0.03 | 0.00 | 94 | 1009.1 |
| 20260508131511 | 8 | 242 | 0.0 | 0.0 | 0.00 | 0.03 | 0.00 | 94 | 1009.1 |
| 20260508130009 | 8 | 242 | 0.0 | 0.0 | 0.00 | 0.03 | 0.00 | 93 | 1009.0 |
| 20260508124507 | 8 | 242 | 0.0 | 0.0 | 0.00 | 0.03 | 0.00 | 93 | 1008.9 |
| 20260508123007 | 8 | 242 | 0.0 | 0.0 | 0.00 | 0.03 | 0.00 | 93 | 1008.9 |
| 20260508121506 | 8 | 242 | 0.0 | 0.0 | 0.00 | 0.03 | 0.00 | 93 | 1008.8 |
| 20260508120003 | 8 | 242 | 0.0 | 0.0 | 0.00 | 0.03 | 0.00 | 93 | 1008.9 |
| 20260508114501 | 8 | 242 | 0.0 | 0.0 | 0.00 | 0.03 | 0.00 | 93 | 1008.8 |
| 20260508113100 | 8 | 242 | 0.0 | 0.0 | 0.00 | 0.03 | 0.00 | 93 | 1008.8 |
| 20260508111558 | 9 | 242 | 0.0 | 0.0 | 0.00 | 0.03 | 0.00 | 93 | 1009.0 |
| 20260508110125 | 9 | 242 | 0.0 | 0.0 | 0.00 | 0.03 | 0.00 | 93 | 1008.9 |
| 20260508104600 | 9 | 242 | 0.0 | 0.0 | 0.00 | 0.03 | 0.00 | 92 | 1008.8 |
| 20260508103052 | 10 | 242 | 0.0 | 0.0 | 0.00 | 0.03 | 0.00 | 92 | 1008.8 |
| 20260508101555 | 10 | 242 | 0.0 | 0.0 | 0.00 | 0.03 | 0.00 | 92 | 1008.8 |
| 20260508100048 | 10 | 242 | 0.0 | 0.0 | 0.00 | 0.03 | 0.00 | 92 | 1008.9 |
| 20260508094553 | 10 | 242 | 0.0 | 0.0 | 0.00 | 0.03 | 0.00 | 92 | 1008.8 |
| 20260508093054 | 10 | 242 | 0.0 | 0.0 | 0.00 | 0.03 | 0.00 | 92 | 1008.7 |
| 20260508091541 | 10 | 242 | 0.0 | 0.0 | 0.00 | 0.03 | 0.00 | 92 | 1008.6 |
| 20260508090057 | 11 | 242 | 0.0 | 0.0 | 0.00 | 0.03 | 0.00 | 92 | 1008.6 |
| 20260508084536 | 11 | 242 | 0.0 | 0.0 | 0.00 | 0.03 | 0.00 | 91 | 1008.6 |
| 20260508083033 | 11 | 242 | 0.0 | 0.0 | 0.00 | 0.03 | 0.00 | 91 | 1008.6 |
| 20260508081532 | 11 | 242 | 0.0 | 0.0 | 0.00 | 0.03 | 0.00 | 91 | 1008.5 |
| 20260508080037 | 11 | 242 | 0.0 | 0.0 | 0.00 | 0.03 | 0.00 | 91 | 1008.5 |
| 20260508074535 | 12 | 242 | 0.0 | 0.0 | 0.00 | 0.03 | 0.00 | 91 | 1008.6 |
| 20260508073026 | 12 | 242 | 0.0 | 0.0 | 0.00 | 0.03 | 0.00 | 91 | 1008.6 |
| 20260508071527 | 12 | 242 | 0.0 | 0.0 | 0.00 | 0.03 | 0.00 | 90 | 1008.6 |
| 20260508070020 | 12 | 242 | 0.0 | 0.0 | 0.00 | 0.03 | 0.00 | 90 | 1008.7 |
| 20260508064521 | 13 | 242 | 0.0 | 0.0 | 0.00 | 0.03 | 0.03 | 90 | 1008.6 |
| 20260508063019 | 13 | 242 | 0.0 | 0.0 | 0.00 | 0.03 | 0.03 | 90 | 1008.7 |
| 20260508061519 | 13 | 242 | 0.0 | 0.0 | 0.00 | 0.03 | 0.03 | 89 | 1008.7 |
| 20260508060020 | 13 | 242 | 0.0 | 0.0 | 0.00 | 0.03 | 0.03 | 89 | 1008.8 |
| 20260508054518 | 14 | 242 | 0.0 | 0.0 | 0.00 | 0.03 | 0.03 | 88 | 1009.0 |
| 20260508053017 | 14 | 242 | 0.0 | 0.0 | 0.00 | 0.03 | 0.03 | 88 | 1009.0 |
| 20260508051516 | 15 | 242 | 0.0 | 0.0 | 0.00 | 0.03 | 0.03 | 88 | 1008.9 |
| 20260508050018 | 15 | 242 | 0.0 | 0.0 | 0.00 | 0.03 | 0.03 | 87 | 1008.8 |
| 20260508044515 | 15 | 242 | 0.0 | 1.6 | 0.00 | 0.03 | 0.03 | 87 | 1008.8 |
| 20260508043015 | 16 | 242 | 0.0 | 0.0 | 0.00 | 0.03 | 0.03 | 86 | 1008.7 |
| 20260508041513 | 16 | 242 | 0.0 | 1.6 | 0.00 | 0.03 | 0.03 | 84 | 1008.7 |
| 20260508040015 | 17 | 242 | 0.0 | 1.6 | 0.00 | 0.03 | 0.03 | 83 | 1008.5 |
| 20260508034516 | 17 | 242 | 0.0 | 1.6 | 0.00 | 0.03 | 0.03 | 81 | 1008.3 |
| 20260508033017 | 18 | 242 | 0.0 | 1.6 | 0.00 | 0.03 | 0.03 | 79 | 1008.2 |
| 20260508031510 | 19 | 242 | 0.0 | 0.0 | 0.00 | 0.03 | 0.03 | 77 | 1008.1 |
| 20260508030010 | 20 | 242 | 0.0 | 0.0 | 0.00 | 0.03 | 0.03 | 74 | 1007.8 |
| 20260508024513 | 21 | 242 | 0.0 | 0.0 | 0.00 | 0.03 | 0.03 | 70 | 1007.7 |
| 20260508023016 | 22 | 242 | 0.0 | 1.6 | 0.00 | 0.03 | 0.03 | 66 | 1007.7 |
| 20260508021507 | 23 | 238 | 0.0 | 4.8 | 0.00 | 0.03 | 0.03 | 60 | 1007.7 |
| 20260508020008 | 23 | 238 | 0.0 | 3.2 | 0.00 | 0.03 | 0.03 | 54 | 1007.7 |
| 20260508014507 | 25 | 331 | 1.6 | 8.0 | 0.00 | 0.03 | 0.03 | 54 | 1007.7 |
| 20260508013006 | 26 | 248 | 1.6 | 8.0 | 0.00 | 0.03 | 0.03 | 53 | 1007.7 |
| 20260508011506 | 26 | 245 | 1.6 | 11.3 | 0.00 | 0.03 | 0.03 | 55 | 1007.7 |
| 20260508010012 | 26 | 241 | 3.2 | 14.5 | 0.00 | 0.03 | 0.03 | 55 | 1007.7 |
| 20260508004511 | 27 | 210 | 0.0 | 8.0 | 0.00 | 0.03 | 0.03 | 55 | 1007.7 |
| 20260508003006 | 27 | 215 | 3.2 | 6.4 | 0.00 | 0.03 | 0.03 | 53 | 1007.7 |
| 20260508001502 | 27 | 225 | 1.6 | 9.7 | 0.00 | 0.03 | 0.03 | 54 | 1007.7 |
| 20260508000002 | 27 | 300 | 1.6 | 6.4 | 0.00 | 0.03 | 0.03 | 55 | 1007.7 |
| 20260507234501 | 27 | 240 | 0.0 | 4.8 | 0.00 | 0.03 | 0.03 | 54 | 1007.8 |
| 20260507233059 | 27 | 244 | 1.6 | 8.0 | 0.00 | 0.03 | 0.03 | 54 | 1007.9 |
| 20260507231559 | 27 | 277 | 1.6 | 11.3 | 0.00 | 0.03 | 0.03 | 55 | 1008.0 |
| 20260507230056 | 27 | 232 | 1.6 | 4.8 | 0.00 | 0.03 | 0.03 | 54 | 1008.2 |
| 20260507224600 | 27 | 242 | 0.0 | 9.7 | 0.00 | 0.03 | 0.03 | 55 | 1008.4 |
| 20260507223051 | 27 | 346 | 1.6 | 8.0 | 0.00 | 0.03 | 0.03 | 56 | 1008.5 |
| 20260507221548 | 27 | 334 | 1.6 | 6.4 | 0.00 | 0.03 | 0.03 | 55 | 1008.8 |
| 20260507220045 | 26 | 217 | 1.6 | 11.3 | 0.00 | 0.03 | 0.03 | 52 | 1009.0 |
| 20260507214543 | 26 | 234 | 0.0 | 9.7 | 0.00 | 0.03 | 0.03 | 55 | 1009.1 |
| 20260507213047 | 26 | 255 | 1.6 | 8.0 | 0.00 | 0.03 | 0.03 | 55 | 1009.2 |
| 20260507211536 | 26 | 254 | 1.6 | 4.8 | 0.00 | 0.03 | 0.03 | 53 | 1009.5 |
| 20260507210100 | 25 | 242 | 3.2 | 9.7 | 0.00 | 0.03 | 0.03 | 56 | 1009.6 |
| 20260507204530 | 25 | 293 | 1.6 | 8.0 | 0.00 | 0.03 | 0.03 | 57 | 1009.8 |
| 20260507203027 | 25 | 355 | 1.6 | 6.4 | 0.00 | 0.03 | 0.03 | 56 | 1009.9 |
| 20260507201525 | 24 | 314 | 1.6 | 8.0 | 0.00 | 0.03 | 0.03 | 59 | 1010.2 |
| 20260507200034 | 24 | 207 | 1.6 | 8.0 | 0.00 | 0.03 | 0.03 | 60 | 1010.2 |
| 20260507194519 | 24 | 223 | 3.2 | 11.3 | 0.00 | 0.03 | 0.03 | 59 | 1010.3 |
| 20260507193024 | 24 | 171 | 0.0 | 14.5 | 0.00 | 0.03 | 0.03 | 58 | 1010.5 |
| 20260507191522 | 24 | 86 | 1.6 | 6.4 | 0.00 | 0.03 | 0.03 | 59 | 1010.5 |
| 20260507190014 | 23 | 144 | 0.0 | 4.8 | 0.00 | 0.03 | 0.03 | 61 | 1010.7 |
| 20260507184505 | 23 | 219 | 0.0 | 11.3 | 0.00 | 0.03 | 0.03 | 63 | 1010.9 |
| 20260507183004 | 22 | 251 | 1.6 | 6.4 | 0.00 | 0.03 | 0.03 | 62 | 1010.9 |
| 20260507181600 | 22 | 218 | 3.2 | 8.0 | 0.00 | 0.03 | 0.03 | 63 | 1011.0 |
| 20260507180058 | 21 | 114 | 1.6 | 6.4 | 0.00 | 0.03 | 0.03 | 68 | 1011.0 |